Powrót do katalogu

CZ-6A DEB

AktywnySSO
NORAD 54344·DEBRIS·🇨🇳 China

Wystrzelony Nov 11, 2022 z Taiyuan Satellite Launch Center

Loading…

Następne Przeloty (najbliższe 24 godziny)

TLE

ŚwieżeSource: Space-Track

Epoka: Sep 14, 2026, 09:53 UTC

1 54344U 22151CP  26257.41229067  .00000204  00000-0  14480-3 0  9990
2 54344  98.8694 252.1770 0057384 108.4473 252.2945 14.07309304196651

Śledź CZ-6A DEB w czasie rzeczywistym z AllMySat

Download on the App Store